This demonstration page uses our WeatherBlox Daily Observations layout. Learn more.

Left ArrowRight Arrow

39.08367, -84.50855

Hourly Observations for December 2, 2016

Temp ( °F °C ) Dew Point ( °F °C ) Humidity (%) Winds ( mph kmh ) Pressure ( in mb ) Visibility ( mi km ) Precip ( " mm )
12:53 am 00:53 Cloudy 35 1.7 31 -0.6 85 85 Calm 30.09 1019 10 16 0.00 0.00
1:26 am 01:26 Cloudy 36 2 32 0 87 87 S 3 6 30.09 1019 10 16 0.00 0.00
1:53 am 01:53 Cloudy 36 2.2 33 0.6 89 89 S 5 7 30.10 1019 10 16 0.00 0.00
2:53 am 02:53 Cloudy 37 2.8 32 0 82 82 SSW 5 7 30.12 1020 10 16 0.00 0.00
3:53 am 03:53 Cloudy 38 3.3 30 -1.1 73 73 NW 5 7 30.13 1020 10 16 0.00 0.00
4:53 am 04:53 Cloudy 38 3.3 30 -1.1 73 73 W 10 17 30.14 1021 10 16 0.00 0.00
5:53 am 05:53 Cloudy 38 3.3 30 -1.1 73 73 NW 5 7 30.16 1021 10 16 0.00 0.00
6:53 am 06:53 Cloudy 38 3.3 31 -0.6 76 76 W 6 9 30.17 1022 10 16 0.00 0.00
7:53 am 07:53 Cloudy 38 3.3 31 -0.6 76 76 W 7 11 30.19 1022 10 16 0.00 0.00
8:53 am 08:53 Cloudy 38 3.3 30 -1.1 73 73 W 12 19 30.20 1023 10 16 0.00 0.00
9:53 am 09:53 Cloudy 38 3.3 30 -1.1 73 73 W 8 13 30.22 1023 10 16 0.00 0.00
10:53 am 10:53 Cloudy 39 3.9 30 -1.1 70 70 W 8 13 30.24 1024 10 16 0.00 0.00
11:04 am 11:04 Cloudy 39 4 30 -1 70 70 W 7 11 30.24 1024 10 16 0.00 0.00
11:53 am 11:53 Cloudy 40 4.4 31 -0.6 70 70 WSW 8 13 30.24 1024 10 16 0.00 0.00
12:53 pm 12:53 Cloudy 40 4.4 32 0 73 73 SW 10 17 30.23 1024 10 16 0.00 0.00
1:53 pm 13:53 Cloudy 40 4.4 32 0 73 73 WSW 12 19 30.23 1024 10 16 0.00 0.00
2:06 pm 14:06 Cloudy 39 4 32 0 75 75 WSW 8 13 30.21 1023 10 16 0.00 0.00
2:30 pm 14:30 Cloudy 41 5 32 0 70 70 SW 10 17 30.21 1023 10 16 0.00 0.00
2:53 pm 14:53 Cloudy 41 5 32 0 70 70 WSW 8 13 30.23 1024 10 16 0.00 0.00
3:53 pm 15:53 Cloudy 41 5 31 -0.6 67 67 W 10 17 30.26 1025 10 16 0.00 0.00
4:53 pm 16:53 Cloudy 41 5 31 -0.6 67 67 W 9 15 30.27 1025 10 16 0.00 0.00
5:53 pm 17:53 Cloudy 41 5 30 -1.1 65 65 W 9 15 30.28 1025 10 16 0.00 0.00
6:53 pm 18:53 Cloudy 41 5 31 -0.6 67 67 NW 9 15 30.30 1026 10 16 0.00 0.00
7:53 pm 19:53 Cloudy 41 5 31 -0.6 67 67 NW 6 9 30.32 1027 10 16 0.00 0.00
8:53 pm 20:53 Cloudy 41 5 31 -0.6 67 67 Calm 30.33 1027 10 16 0.00 0.00
9:53 pm 21:53 Cloudy 41 5 32 0 70 70 WNW 3 6 30.34 1027 10 16 0.00 0.00
10:53 pm 22:53 Cloudy 40 4.4 33 0.6 77 77 NNW 3 6 30.34 1027 10 16 0.00 0.00
11:53 pm 23:53 Cloudy 39 3.9 34 1.1 82 82 N 6 9 30.35 1028 10 16 0.00 0.00

Powered by AerisWeather